This is the latest recevied weather packets stored in our database for station/object K5FEP. If no packets are shown the sender has not sent any weather packets the latest 10 day(s).
| Time | Temp. | Humidity | Pressure | Rain* | Wind** | Luminosity | Snow |
|---|---|---|---|---|---|---|---|
| 1788264416 | 22.22° C | 96% | 1018.6 hPa | 0 mm | - | 58 W/m² | - |
| 1788264111 | 22.22° C | 97% | 1018.6 hPa | 0 mm | - | 62 W/m² | - |
| 1788263806 | 21.67° C | 97% | 1018.4 hPa | 0 mm | - | 67 W/m² | - |
| 1788263503 | 21.67° C | 97% | 1018.6 hPa | 0 mm | - | 47 W/m² | - |
| 1788263199 | 21.67° C | 97% | 1018.5 hPa | 0 mm | - | 42 W/m² | - |
| 1788262898 | 21.67° C | 97% | 1018.3 hPa | 0 mm | - | 40 W/m² | - |
| 1788262598 | 21.11° C | 97% | 1018.3 hPa | 0 mm | - | 36 W/m² | - |
| 1788262293 | 21.11° C | 97% | 1018.3 hPa | 0 mm | - | 33 W/m² | - |
| 1788261992 | 21.11° C | 97% | 1018.1 hPa | 0 mm | - | 29 W/m² | - |
| 1788261687 | 21.11° C | 97% | 1018 hPa | 0 mm | - | 26 W/m² | - |
| 1788261386 | 21.11° C | 97% | 1018 hPa | 0 mm | - | 22 W/m² | - |
| 1788261085 | 21.11° C | 97% | 1018 hPa | 0 mm | - | 18 W/m² | - |
| 1788260781 | 21.11° C | 97% | 1017.9 hPa | 0 mm | - | 14 W/m² | - |
| 1788260476 | 21.11° C | 97% | 1018 hPa | 0 mm | - | 11 W/m² | - |
| 1788260173 | 21.11° C | 97% | 1018 hPa | 0 mm | - | 7 W/m² | - |
| 1788259872 | 21.11° C | 97% | 1017.9 hPa | 0 mm | - | 5 W/m² | - |
| 1788259568 | 21.11° C | 97% | 1017.8 hPa | 0 mm | - | 3 W/m² | - |
| 1788259263 | 21.67° C | 97% | 1017.9 hPa | 0 mm | - | 1 W/m² | - |
| 1788258963 | 21.67° C | 97% | 1017.7 hPa | 0 mm | - | 0 W/m² | - |
| 1788258659 | 21.67° C | 97% | 1017.4 hPa | 0 mm | - | 0 W/m² | - |
| 1788258358 | 21.11° C | 97% | 1017.7 hPa | 0 mm | - | 0 W/m² | - |
| 1788258053 | 21.11° C | 96% | 1017.6 hPa | 0 mm | - | 0 W/m² | - |
| 1788257749 | 21.67° C | 96% | 1017.6 hPa | 0 mm | - | 0 W/m² | - |
| 1788257448 | 21.67° C | 96% | 1017.8 hPa | 0 mm | - | 0 W/m² | - |
| 1788257148 | 21.67° C | 96% | 1017.6 hPa | 0 mm | - | 0 W/m² | - |
* Rain latest hour (hover to see other rain measurements)
** Current wind speed in m/s (hover to see current wind gust speed)